Diademe 2 despin weight

Debris
NORAD ID: 2685 Int'l Des: 1967-014 Owner: CNES Country: F
LEO

关于 Diademe 2 despin weight

正在加载描述...

实时位置

正在加载3D地球...

即将过境

高度历史

Altitude vs Time

uPlot chart will show altitude changes over time

两行轨道根数

1 02685U 67014F 25340.45195812 .00015521 00000-0 26991-2 0 9991
2 02685 38.9332 34.5582 0352720 191.3900 167.8704 14.34284553939766
Epoch: Dec 6, 2025 • Age: 29 hours

当前状态

高度 930.4 km
速度 7.31 km/s
星下点 36.58°N, 143.64°E
类型 debris

大型星座

Loading constellations...